Location: Newark
(46.9000°N, 28.3500°E)
Time: 15:13:15
(UTC+00:00)

Explorer 7 - Pass Details

Date: 26 August 2019
Orbit: 485 x 680 km, 50.3° (Epoch: 17 September)

Event Time Altitude Azimuth Distance (km) Brightness Sun altitude
Rises 09:49:57 0° 284° (WNW) 2,972 10.4 53.3°
Reaches altitude 10° 09:52:23 10° 288° (WNW) 2,035 9.7 53.4°
Maximum altitude 09:57:01 59° 9° (N) 711 7.8 53.5°
Drops below altitude 10° 10:01:22 10° 89° (E) 1,913 9.7 53.5°
Sets 10:03:35 0° 93° (E) 2,777 10.5 53.5°
